{"data":{"norad_id":61777,"epoch":"2026-05-25T04:33:37.151712Z","epoch_age_seconds":58535,"freshness":"FRESH","line1":"1 61777U 24199AU  26145.19001333  .00017783  00000+0  38156-3 0  9992","line2":"2 61777  97.3026  17.6118 0014767  11.1111 349.0460 15.44661000130638","mean_motion":15.44661,"eccentricity":0.0014767,"inclination_deg":97.3026,"raan_deg":17.6118,"arg_perigee_deg":11.1111,"mean_anomaly_deg":349.046,"bstar":0.00038156,"rev_number":13063,"period_min":93.224338544185,"perigee_km":422.31725662161,"apogee_km":442.43142080937,"semimajor_km":6810.5113387155,"source":"CELESTRAK","updated_at":"2026-05-25T13:38:02.561024Z"}}